Flag for Germany Weather past 2 weeks in Plettenberg, North Rhine-Westphalia, Germany

Now
54 °F

Passing clouds.


Feels Like: 48 °F
Forecast: 41 / 52 °F
Wind: 24 mph from Southwest

Location: Dortmund / Wickede

Current Time: Dec 18, 2014 at 7:30:13 PM

Latest Report: Dec 18, 2014 at 6:50 PM


Visibility: N/A

Pressure: 29.83 "Hg

Humidity: 82%

Dew point: 48 °F

Location of PlettenbergLocation

Historic Weather in Plettenberg — Graph

°F

Plettenberg temperature yesterday

Maximum temperature yesterday: 48 °F (at 7:50 PM)
Minimum temperature yesterday: 39 °F (at 5:20 AM)
Average temperature yesterday: 43 °F

Past Weeks' High & Low Weather Summary

 TemperatureHumidityPressure
High54 °F (Dec 18, 5:20 PM)93% (Dec 4, 7:20 AM)30.36 "Hg (Dec 4, 7:20 AM)
Low28 °F (Dec 3, 6:20 PM)57% (Dec 7, 2:20 PM)29.39 "Hg (Dec 12, 12:50 PM)
Average40 °F82%29.93 "Hg
* Reported Dec 3 6:20 PM — Dec 18 6:20 PM, Plettenberg, Weather by CustomWeather, © 2014

Note: Actual official high and low records may vary slightly from our data, if they occured in-between our weather recording intervals... More about our weather records

Advertising

Plettenberg weather history for previous 24 hours

 ConditionsComfort  
Time TempWeatherWind HumidityBarometerVisibility
6:20 PM
Dec 18
54 °FDrizzle. Low clouds.23 mph88%29.80 "Hg4 mi
5:50 PM54 °FDrizzle. Low clouds.22 mph88%29.80 "Hg4 mi
5:20 PM54 °FDrizzle. Low clouds.22 mph88%29.80 "Hg4 mi
4:50 PM52 °FDrizzle. Low clouds.22 mph88%29.80 "Hg6 mi
4:20 PM52 °FScattered showers. Low clouds.21 mph88%29.80 "Hg5 mi
3:50 PM52 °FOvercast.20 mph88%29.80 "Hg6 mi
3:20 PM52 °FLow clouds.17 mph88%29.80 "Hg6 mi
2:50 PM52 °FDrizzle. Partly sunny.16 mph88%29.80 "Hg2 mi
2:20 PM52 °FDrizzle. Fog.16 mph88%29.80 "Hg1 mi
1:50 PM52 °FDrizzle. Partly sunny.16 mph88%29.80 "Hg4 mi
1:20 PM52 °FDrizzle. Partly sunny.16 mph88%29.80 "Hg4 mi
12:50 PM52 °FDrizzle. Fog.17 mph88%29.80 "Hg2 mi
12:20 PM52 °FDrizzle. Partly sunny.14 mph88%29.80 "Hg5 mi
11:50 AM52 °FDrizzle. Fog.13 mph88%29.83 "Hg3 mi
11:20 AM52 °FDrizzle. Partly sunny.15 mph88%29.83 "Hg5 mi
10:50 AM52 °FPartly sunny.15 mph88%29.83 "HgN/A
10:20 AM52 °FPartly sunny.14 mph88%29.83 "HgN/A
9:50 AM50 °FDrizzle. Partly sunny.15 mph88%29.83 "HgN/A
9:20 AM50 °FPartly sunny.15 mph88%29.80 "Hg6 mi
8:50 AM50 °FPartly sunny.14 mph88%29.80 "HgN/A
8:20 AM50 °FPassing clouds.14 mph88%29.80 "HgN/A
7:50 AM50 °FPassing clouds.13 mph88%29.80 "HgN/A
7:20 AM50 °FPassing clouds.14 mph88%29.80 "HgN/A
6:50 AM50 °FPassing clouds.14 mph88%29.80 "HgN/A
6:20 AM50 °FPassing clouds.12 mph88%29.80 "HgN/A
5:50 AM50 °FPassing clouds.12 mph88%29.80 "HgN/A
5:20 AM50 °FPassing clouds.16 mph88%29.80 "HgN/A
10:20 PM
Dec 17
48 °FLight rain. Low clouds.10 mph87%29.77 "Hg4 mi
9:50 PM48 °FLight rain. Low clouds.10 mph87%29.77 "Hg4 mi
9:20 PM48 °FLight rain. Low clouds.10 mph87%29.74 "Hg3 mi
8:50 PM48 °FLight rain. Low clouds.10 mph87%29.74 "Hg4 mi
8:20 PM48 °FLight rain. Low clouds.12 mph87%29.71 "Hg3 mi
7:50 PM48 °FRain. Low clouds.14 mph87%29.71 "Hg3 mi
7:20 PM46 °FPassing clouds.14 mph93%29.68 "Hg3 mi
Weather by CustomWeather, © 2014

See weather overviewHow to use our weather pages